Date,TemperatureHighF,TemperatureAvgF,TemperatureLowF,DewpointHighF,DewpointAvgF,DewpointLowF,HumidityHigh,HumidityAvg,HumidityLow,PressureMaxIn,PressureMinIn,WindSpeedMaxMPH,WindSpeedAvgMPH,GustSpeedMaxMPH,PrecipitationSumIn
2014-1-1,13.0,5.6,-4.6,6.0,-0.8,-12.0,85,75,65,30.52,30.15,8,2,15,0.00
2014-1-2,-4.5,-9.2,-11.8,-11.0,-14.7,-17.0,80,77,72,30.51,30.12,8,2,11,0.06
2014-1-3,-4.6,-8.4,-12.9,-12.0,-14.4,-18.0,86,75,66,30.45,30.08,8,2,13,0.00
2014-1-4,21.3,8.9,-8.9,8.0,-1.8,-15.0,76,63,49,30.45,30.11,14,4,23,0.01
2014-1-5,33.6,27.2,21.3,31.0,16.5,9.0,92,65,50,30.25,29.71,11,2,17,0.05
2014-1-6,48.5,34.2,19.1,47.0,29.4,9.0,95,83,64,29.70,29.20,16,4,24,0.26
2014-1-7,18.2,10.4,7.4,7.0,-1.4,-6.0,67,59,46,30.09,29.54,20,8,29,0.00
2014-1-8,17.3,12.1,7.6,7.0,2.4,-1.0,70,65,59,30.41,30.09,9,3,15,0.00
2014-1-9,24.8,17.9,14.3,11.0,8.2,6.0,74,66,51,30.63,30.39,6,2,11,0.00
2014-1-10,34.3,25.9,15.9,29.0,19.8,9.0,87,77,66,30.52,30.18,8,2,15,0.00
2014-1-11,51.6,43.2,33.5,50.0,40.9,29.0,95,91,82,30.17,29.10,13,2,23,0.63
2014-1-12,43.7,37.8,35.1,40.0,30.5,26.0,85,75,66,29.93,29.21,11,5,23,0.00
2014-1-13,45.7,39.6,32.0,34.0,28.2,25.0,78,65,48,30.00,29.71,20,4,25,0.00
2014-1-14,45.2,41.6,35.4,41.0,37.9,32.0,93,87,66,29.79,29.67,0,0,0,0.15
2014-1-15,44.3,36.3,30.7,34.0,30.7,28.0,90,80,66,29.95,29.79,0,0,0,0.01
2014-1-16,32.4,29.4,26.3,30.0,26.2,23.0,92,87,80,29.99,29.92,0,0,0,0.02
2014-1-17,34.8,30.0,25.0,27.0,25.2,22.0,91,82,73,29.94,29.83,7,2,16,0.00
2014-1-18,39.9,31.3,22.3,28.0,24.5,19.0,92,77,57,29.88,29.67,5,0,8,0.00
2014-1-19,31.9,28.0,25.0,27.0,23.1,19.0,90,82,74,29.72,29.41,10,2,17,0.12
2014-1-20,30.8,12.8,0.8,24.0,7.5,-7.0,88,79,71,30.04,29.43,10,3,12,0.10
2014-1-21,2.2,-4.2,-10.5,-7.0,-12.3,-17.0,83,68,57,30.20,30.04,5,2,9,0.00
2014-1-22,-2.0,-8.6,-14.8,-12.0,-15.1,-20.0,92,73,64,30.14,29.95,13,2,15,0.00
2014-1-23,10.3,-1.6,-12.5,-1.0,-8.4,-18.0,83,73,58,30.26,30.05,5,1,8,0.00
2014-1-24,14.7,4.0,-6.7,0.0,-6.3,-13.0,76,63,48,30.32,29.82,14,3,19,0.00
2014-1-25,20.7,18.1,14.6,15.0,9.2,0.0,82,69,52,29.81,29.30,13,4,22,0.00
2014-1-26,20.3,8.0,-2.5,16.0,-3.9,-12.0,82,59,48,29.78,29.33,11,3,17,0.00
2014-1-27,29.8,19.6,7.8,24.0,7.0,-10.0,82,59,37,30.01,29.32,19,5,31,0.00
2014-1-28,17.3,10.4,4.8,0.0,-4.5,-10.0,63,51,40,30.25,30.02,13,4,18,0.00
2014-1-29,17.5,11.4,4.5,5.0,-2.7,-9.0,67,54,42,30.19,29.92,10,3,17,0.00
2014-1-30,25.4,18.4,10.1,9.0,5.7,3.0,76,59,45,30.37,29.96,11,3,21,0.00
2014-1-31,33.4,28.3,23.5,22.0,14.0,6.0,70,55,45,30.17,29.91,18,3,20,0.00
2014-2-1,37.0,31.0,20.6,32.0,24.1,16.0,92,76,59,30.29,29.87,9,2,20,0.05
2014-2-2,37.9,34.0,28.1,32.0,28.6,21.0,87,80,73,30.17,29.83,11,0,23,0.00
2014-2-3,28.1,21.0,11.4,23.0,14.1,7.0,86,75,59,30.35,30.16,1,0,2,0.00
2014-2-4,29.4,20.2,11.2,17.0,11.9,7.0,85,71,50,30.49,30.34,5,1,10,0.00
2014-2-5,23.7,18.1,9.5,20.0,14.3,6.0,88,85,73,30.35,29.82,8,1,10,0.42
2014-2-6,17.3,11.5,3.2,9.0,5.1,-1.0,86,75,66,30.33,30.13,6,1,9,0.00
2014-2-7,24.9,17.2,12.2,14.0,8.8,4.0,82,70,56,30.20,30.11,6,2,13,0.00
2014-2-8,24.9,18.0,12.5,11.0,7.6,4.0,73,64,52,30.27,30.17,10,2,16,0.00
2014-2-9,24.4,19.3,12.8,17.0,11.2,8.0,86,71,51,30.19,29.97,4,0,7,0.02
2014-2-10,23.8,17.0,11.6,15.0,10.7,5.0,87,77,62,30.23,29.97,4,0,7,0.04
2014-2-11,17.1,9.7,1.4,8.0,1.6,-6.0,85,70,55,30.54,30.23,6,1,12,0.00
2014-2-12,22.1,9.4,-10.2,4.0,-3.0,-15.0,82,60,40,30.60,30.31,8,2,14,0.00
2014-2-13,29.4,22.8,17.1,22.0,14.3,0.0,90,72,45,30.30,29.36,10,2,15,0.08
2014-2-14,28.4,24.2,20.9,26.0,21.5,19.0,100,89,83,29.70,29.10,10,2,19,0.42
2014-2-15,33.0,25.7,17.6,27.0,21.8,14.0,88,85,77,29.82,29.71,6,1,11,0.00
2014-2-16,25.6,15.2,8.6,15.0,5.3,-3.0,87,66,46,30.09,29.78,6,1,14,0.00
2014-2-17,18.5,9.4,1.5,-2.0,-5.4,-9.0,66,53,33,30.40,30.11,5,1,13,0.00
2014-2-18,28.7,20.3,5.6,23.0,11.3,-6.0,92,70,40,30.31,29.99,11,2,19,0.01
2014-2-19,34.8,29.1,18.8,33.0,24.2,16.0,92,82,67,30.04,29.68,7,1,21,0.00
2014-2-20,42.5,36.1,27.8,33.0,27.5,22.0,91,73,50,30.16,29.89,7,1,13,0.10
2014-2-21,40.1,36.4,32.1,36.0,33.6,30.0,93,89,81,30.05,29.60,11,1,20,0.40
2014-2-22,44.5,37.4,32.5,33.0,24.0,15.0,93,61,34,29.90,29.71,18,3,29,0.00
2014-2-23,43.9,36.1,28.3,25.0,18.7,13.0,63,50,36,29.92,29.77,11,3,16,0.00
2014-2-24,28.7,22.7,16.9,18.0,10.7,6.0,75,60,49,29.97,29.79,13,4,24,0.00
2014-2-25,20.2,16.3,11.5,13.0,8.9,4.0,81,73,65,29.99,29.90,9,2,14,0.00
2014-2-26,21.6,14.0,7.2,11.0,1.1,-7.0,79,58,37,29.89,29.76,16,4,31,0.00
2014-2-27,23.2,13.8,7.7,15.0,1.6,-7.0,83,59,45,29.92,29.54,16,4,19,0.00
2014-2-28,17.4,8.5,2.1,-1.0,-5.4,-9.0,68,54,36,30.43,29.94,9,3,12,0.00
2014-3-1,29.8,19.0,0.6,14.0,2.1,-9.0,66,49,37,30.41,30.02,11,3,21,0.00
2014-3-2,29.0,17.8,9.4,23.0,9.0,-1.0,86,69,55,30.18,30.03,8,2,13,0.00
2014-3-3,16.3,7.9,1.7,2.0,-4.2,-10.0,79,59,44,30.34,30.10,7,2,10,0.00
2014-3-4,22.3,10.4,-4.0,10.0,-0.2,-12.0,82,64,37,30.38,30.28,6,1,8,0.00
2014-3-5,19.4,13.0,1.9,12.0,5.7,-5.0,85,73,60,30.63,30.30,6,2,14,0.00
2014-3-6,26.6,10.7,-6.7,3.0,-3.0,-12.0,83,57,29,30.74,30.45,5,1,7,0.00
2014-3-7,37.1,27.5,17.7,18.0,7.0,-5.0,58,42,35,30.45,29.90,13,4,25,0.00
2014-3-8,35.1,30.0,22.6,28.0,20.5,12.0,87,68,56,29.94,29.82,4,1,9,0.00
2014-3-9,29.1,22.6,12.6,17.0,9.2,6.0,78,58,40,30.05,29.86,4,1,10,0.00
2014-3-10,36.8,29.5,22.0,31.0,23.6,17.0,91,79,65,29.86,29.48,8,2,14,0.05
2014-3-11,46.4,37.7,33.4,35.0,31.3,27.0,92,78,55,29.72,29.43,7,2,12,0.00
2014-3-12,35.7,25.5,13.1,29.0,21.6,11.0,91,85,72,29.73,29.40,14,3,22,0.65
2014-3-13,16.9,10.1,6.2,14.0,7.3,3.0,90,88,84,29.99,29.40,15,4,21,0.16
2014-3-14,37.1,18.9,1.5,23.0,12.4,-3.0,85,77,55,30.09,29.68,17,4,27,0.00
2014-3-15,43.1,36.9,25.4,34.0,27.6,21.0,92,70,52,29.94,29.56,14,4,18,0.17
2014-3-16,25.1,14.7,5.0,20.0,2.6,-8.0,83,60,43,30.29,29.95,5,2,13,0.00
2014-3-17,24.9,10.6,-5.0,4.0,-3.6,-12.0,76,55,37,30.27,30.13,10,1,10,0.00
2014-3-18,35.9,18.1,-1.0,14.0,4.4,-7.0,79,58,30,30.36,30.22,5,1,8,0.00
2014-3-19,39.0,29.5,14.5,30.0,14.9,6.0,90,57,36,30.31,29.87,11,2,18,0.01
2014-3-20,39.6,35.7,32.8,36.0,30.2,27.0,93,81,63,29.86,29.60,12,4,20,0.01
2014-3-21,41.1,32.7,27.2,28.0,20.7,14.0,83,62,43,30.01,29.68,11,3,20,0.00
2014-3-22,36.5,30.1,21.7,30.0,22.6,16.0,81,74,61,30.02,29.58,14,2,21,0.00
2014-3-23,34.3,21.7,10.7,26.0,9.5,-1.0,80,60,45,30.19,29.89,10,3,18,0.00
2014-3-24,26.9,16.3,2.9,5.0,0.8,-4.0,74,52,35,30.23,30.07,5,1,10,0.00
2014-3-25,34.5,23.6,11.6,15.0,8.0,2.0,67,53,37,30.11,29.94,9,2,14,0.00
2014-3-26,29.2,23.5,16.5,17.0,9.6,1.0,77,56,43,30.15,29.89,13,3,17,0.00
2014-3-27,34.7,24.6,6.9,16.0,6.4,-2.0,68,47,34,30.33,30.11,9,2,15,0.00
2014-3-28,42.7,37.3,31.5,40.0,31.3,14.0,92,80,43,30.10,29.80,13,4,25,0.08
2014-3-29,42.8,38.0,33.9,39.0,32.0,28.0,92,79,69,30.31,30.05,7,2,10,0.00
2014-3-30,36.6,33.7,30.2,35.0,31.8,27.0,94,92,84,30.04,29.83,10,2,14,0.51
2014-3-31,37.1,32.1,29.5,29.0,26.8,25.0,88,81,70,30.20,29.96,12,3,21,0.00
2014-4-1,46.4,35.8,26.0,27.0,24.1,20.0,86,64,43,30.21,29.98,6,2,7,0.00
2014-4-2,54.0,44.5,37.7,37.0,31.3,26.0,70,61,50,30.07,29.93,10,3,12,0.00
2014-4-3,40.2,35.4,29.9,27.0,24.2,22.0,76,64,51,30.21,30.07,8,2,13,0.00
2014-4-4,52.4,38.0,24.7,35.0,26.5,19.0,92,66,39,30.18,29.71,18,3,25,0.14
2014-4-5,44.5,37.7,34.0,39.0,31.3,26.0,93,78,60,29.97,29.66,16,5,24,0.04
2014-4-6,52.3,41.3,32.0,28.0,24.5,21.0,70,53,34,30.15,29.98,8,2,16,0.00
2014-4-7,60.3,46.8,31.2,37.0,26.7,21.0,84,48,29,30.17,29.81,10,2,22,0.06
2014-4-8,55.6,44.7,38.1,49.0,40.6,35.0,93,86,77,29.79,29.21,9,3,23,0.23
2014-4-9,46.8,38.8,30.5,37.0,25.7,15.0,91,62,35,29.93,29.54,8,2,14,0.00
2014-4-10,61.2,46.4,26.7,33.0,26.0,17.0,70,47,32,30.02,29.72,16,4,31,0.00
2014-4-11,62.6,52.1,40.2,44.0,35.0,23.0,91,55,26,30.01,29.76,9,3,16,0.05
2014-4-12,64.3,48.2,31.7,40.0,31.7,26.0,83,56,29,30.20,30.01,8,2,14,0.00
2014-4-13,64.3,51.4,41.7,49.0,41.7,33.0,90,71,54,30.20,29.79,12,2,21,0.24
2014-4-14,78.7,65.2,45.3,58.0,53.2,43.0,95,68,45,29.87,29.55,14,4,33,0.31
2014-4-15,65.0,51.1,26.1,60.0,48.0,24.0,93,89,77,29.94,29.38,11,3,28,1.48
2014-4-16,34.1,26.8,20.2,24.0,18.1,15.0,93,71,51,30.65,29.91,6,2,12,0.03
2014-4-17,48.4,35.7,20.9,29.0,20.8,17.0,86,58,32,30.79,30.57,5,2,11,0.00
2014-4-18,52.9,44.0,34.3,27.0,17.6,10.0,54,36,18,30.57,30.16,12,4,19,0.00
2014-4-19,51.5,42.9,33.6,40.0,32.2,25.0,93,68,46,30.45,30.13,4,1,10,0.12
2014-4-20,60.4,46.0,25.3,33.0,24.8,18.0,90,50,20,30.52,30.18,8,2,13,0.00
2014-4-21,67.9,57.4,48.7,42.0,33.1,23.0,61,41,30,30.18,29.74,9,3,19,0.00
2014-4-22,62.8,55.8,49.2,53.0,41.5,29.0,93,63,33,29.74,29.40,10,2,16,0.08
2014-4-23,50.2,44.7,42.0,46.0,37.8,27.0,94,78,55,29.77,29.45,10,2,15,0.03
2014-4-24,54.4,43.7,34.1,31.0,26.3,21.0,64,51,38,29.99,29.77,10,3,15,0.00
2014-4-25,57.1,45.6,31.2,35.0,28.7,22.0,76,53,37,30.06,29.73,6,2,11,0.00
2014-4-26,46.3,43.9,40.7,45.0,40.7,34.0,94,89,64,29.84,29.68,5,1,10,0.38
2014-4-27,47.0,40.2,35.0,41.0,38.0,34.0,95,92,77,30.15,29.84,6,1,11,0.22
2014-4-28,54.5,45.9,35.2,43.0,39.1,34.0,96,78,59,30.18,30.09,8,2,13,0.00
2014-4-29,60.6,51.6,44.0,40.0,35.3,28.0,80,57,31,30.41,30.18,16,4,23,0.01
2014-4-30,46.9,42.8,39.5,42.0,38.7,36.0,92,86,74,30.44,30.01,10,4,16,0.67
2014-5-1,68.0,52.2,42.9,57.0,47.2,39.0,93,83,67,30.00,29.62,10,3,18,0.25
2014-5-2,60.9,51.2,45.7,49.0,40.4,36.0,85,67,49,29.77,29.63,11,3,17,0.03
2014-5-3,64.8,51.8,45.8,50.0,44.6,37.0,92,77,53,29.80,29.64,11,2,14,0.11
2014-5-4,54.0,48.1,45.8,46.0,44.6,42.0,95,88,67,29.69,29.52,9,2,15,0.46
2014-5-5,49.8,46.0,43.6,46.0,42.3,40.0,94,87,74,29.91,29.69,5,1,9,0.03
2014-5-6,58.4,48.5,37.7,41.0,35.5,30.0,93,64,36,30.08,29.88,11,2,13,0.00
2014-5-7,61.7,49.8,37.0,40.0,34.3,30.0,84,58,37,30.27,30.08,11,2,12,0.00
2014-5-8,67.8,53.2,34.7,46.0,35.4,30.0,86,54,31,30.20,30.10,9,2,12,0.00
2014-5-9,68.1,57.8,47.7,56.0,46.0,36.0,81,66,52,30.14,29.88,13,3,25,0.00
2014-5-10,76.9,66.5,59.2,64.0,53.3,36.0,94,66,34,29.88,29.65,12,4,24,0.51
2014-5-11,75.0,62.0,51.2,49.0,42.4,39.0,69,50,30,29.97,29.79,10,3,13,0.00
2014-5-12,73.6,63.7,49.6,51.0,44.6,37.0,73,51,38,30.07,29.97,6,2,17,0.00
2014-5-13,66.1,56.5,49.7,50.0,46.8,44.0,85,71,56,30.21,30.07,7,2,15,0.00
2014-5-14,78.2,65.5,57.2,63.0,53.4,44.0,90,66,53,30.16,30.05,13,4,20,0.03
2014-5-15,79.0,70.8,64.7,66.0,61.5,52.0,83,73,58,30.11,29.98,20,5,25,0.00
2014-5-16,73.1,70.7,66.7,63.0,61.4,59.0,85,72,65,29.98,29.74,15,5,28,0.02
2014-5-17,65.8,54.3,46.7,56.0,46.9,38.0,95,78,48,30.10,29.79,8,2,11,1.98
2014-5-18,64.3,52.7,40.1,44.0,37.2,33.0,88,59,34,30.20,30.10,5,1,11,0.00
2014-5-19,65.7,54.5,42.2,47.0,39.7,36.0,88,60,35,30.15,30.03,7,1,14,0.00
2014-5-20,70.4,57.5,42.8,53.0,43.1,39.0,87,62,33,30.12,29.96,6,1,13,0.00
2014-5-21,76.7,61.5,42.7,56.0,45.6,40.0,91,60,31,29.98,29.81,5,1,8,0.00
2014-5-22,64.6,58.2,55.3,57.0,53.4,44.0,95,85,58,29.82,29.78,5,1,8,0.62
2014-5-23,61.4,57.5,54.9,60.0,56.0,54.0,96,94,90,29.95,29.81,3,0,6,0.23
2014-5-24,70.3,60.5,53.1,61.0,54.7,51.0,96,83,54,30.04,29.95,5,1,13,0.02
2014-5-25,78.7,63.7,48.1,61.0,53.3,47.0,96,72,35,30.05,29.89,4,1,7,0.00
2014-5-26,71.4,63.5,58.2,62.0,57.6,51.0,94,81,64,29.89,29.76,7,2,12,0.19
2014-5-27,74.6,61.2,53.8,67.0,58.0,52.0,96,89,72,29.84,29.72,6,1,10,0.18
2014-5-28,57.5,53.5,47.4,52.0,50.6,45.0,95,90,79,30.19,29.84,4,1,7,0.02
2014-5-29,71.3,58.1,42.9,55.0,47.6,41.0,96,71,44,30.23,30.05,6,1,10,0.00
2014-5-30,68.7,58.6,50.4,57.0,51.2,47.0,93,77,56,30.11,30.01,6,1,17,0.01
2014-5-31,66.9,56.5,47.4,56.0,50.5,46.0,94,81,62,30.29,30.11,4,1,10,0.00
2014-6-1,76.6,63.4,45.6,62.0,50.4,44.0,95,67,42,30.34,30.11,8,2,11,0.00
2014-6-2,83.8,72.3,60.1,63.0,52.6,45.0,62,51,36,30.12,29.88,9,3,18,0.00
2014-6-3,87.1,73.3,64.3,70.0,63.6,57.0,93,73,52,29.91,29.68,9,3,24,0.65
2014-6-4,75.8,66.3,57.5,62.0,56.9,52.0,94,73,51,29.84,29.67,8,2,11,0.12
2014-6-5,74.6,61.4,50.2,61.0,53.1,47.0,92,76,49,29.77,29.66,5,1,9,0.00
2014-6-6,68.3,60.8,53.6,59.0,55.6,52.0,95,84,65,29.89,29.75,5,1,8,0.02
2014-6-7,79.7,67.9,54.8,63.0,56.6,53.0,93,70,46,29.97,29.86,5,1,10,0.01
2014-6-8,84.5,69.3,53.2,67.0,57.8,51.0,94,69,38,29.94,29.80,5,1,8,0.00
2014-6-9,80.1,71.1,62.0,68.0,60.9,57.0,87,71,55,29.94,29.83,4,1,7,0.00
2014-6-10,73.3,66.2,60.2,64.0,59.5,55.0,88,79,61,30.05,29.89,5,1,11,0.00
2014-6-11,73.4,61.5,55.0,58.0,54.5,50.0,93,79,46,30.12,30.05,11,2,14,0.18
2014-6-12,61.4,58.2,55.1,60.0,55.9,51.0,95,92,85,30.05,29.92,8,2,17,1.09
2014-6-13,67.7,63.4,60.9,63.0,60.6,59.0,95,90,82,29.92,29.72,11,2,14,0.36
2014-6-14,71.4,62.8,58.1,60.0,56.9,54.0,95,82,60,29.98,29.72,7,2,11,0.16
2014-6-15,71.0,61.9,54.8,58.0,53.4,51.0,88,75,55,30.11,29.97,3,1,9,0.00
2014-6-16,77.8,65.4,49.8,64.0,55.0,48.0,95,72,43,30.16,29.96,4,1,7,0.00
2014-6-17,85.4,73.8,61.0,68.0,60.6,54.0,87,64,43,30.02,29.57,11,1,11,0.14
2014-6-18,76.8,68.9,62.7,67.0,63.0,58.0,94,82,62,29.94,29.59,9,2,14,0.10
2014-6-19,72.5,65.5,58.4,59.0,53.1,48.0,93,66,43,30.03,29.93,5,1,12,0.00
2014-6-20,66.6,59.4,51.2,50.0,47.0,44.0,83,65,47,30.02,29.96,6,1,14,0.00
2014-6-21,69.1,58.8,45.1,55.0,47.9,43.0,94,70,45,30.00,29.90,4,1,16,0.00
2014-6-22,74.4,63.0,49.5,60.0,51.5,47.0,93,68,47,30.00,29.92,5,1,10,0.00
2014-6-23,81.9,68.1,50.2,64.0,54.4,48.0,92,65,40,30.09,29.98,5,1,12,0.00
2014-6-24,73.1,70.5,66.1,65.0,61.4,55.0,90,73,58,30.00,29.82,10,4,18,0.11
2014-6-25,69.3,67.5,65.4,68.0,65.8,64.0,95,94,87,29.88,29.82,6,2,12,1.79
2014-6-26,77.8,68.8,59.9,67.0,62.8,57.0,96,82,59,30.00,29.80,3,1,10,0.00
2014-6-27,83.8,69.1,55.1,68.0,57.3,52.0,96,70,35,30.15,30.00,3,1,7,0.00
2014-6-28,84.8,70.9,54.2,69.0,58.8,52.0,93,68,39,30.26,30.15,4,1,8,0.00
2014-6-29,86.5,74.9,61.0,70.0,60.9,54.0,80,63,43,30.19,29.95,9,2,10,0.00
2014-6-30,83.5,76.4,70.4,72.0,66.9,61.0,82,73,63,29.96,29.80,10,3,13,0.00
2014-7-1,88.9,79.8,72.9,75.0,71.3,68.0,86,76,60,29.82,29.60,11,4,17,0.00
2014-7-2,87.2,77.1,69.5,77.0,70.6,67.0,93,81,56,29.84,29.66,7,2,15,0.07
2014-7-3,84.0,73.0,66.1,72.0,68.0,64.0,95,85,60,29.92,29.82,7,2,12,1.32
2014-7-4,67.0,64.4,59.2,65.0,61.3,56.0,96,90,78,30.01,29.88,5,1,9,0.27
2014-7-5,80.7,68.3,58.4,59.0,53.7,49.0,87,61,42,30.03,29.89,7,2,19,0.00
2014-7-6,83.8,72.8,64.7,63.0,56.4,53.0,69,57,42,29.93,29.77,7,3,14,0.00
2014-7-7,72.2,68.8,65.3,69.0,61.8,54.0,93,79,64,29.77,29.58,6,2,13,0.08
2014-7-8,85.3,75.7,67.7,73.0,68.8,66.0,94,80,59,29.69,29.45,8,3,15,0.31
2014-7-9,78.8,70.9,65.9,67.0,62.6,55.0,93,76,59,29.88,29.52,9,2,13,0.00
2014-7-10,76.7,66.8,56.6,59.0,54.0,51.0,82,65,44,30.15,29.89,5,2,10,0.00
2014-7-11,78.6,65.7,50.9,63.0,54.7,49.0,94,70,41,30.25,30.13,3,1,7,0.00
2014-7-12,84.8,70.9,53.6,68.0,60.9,51.0,93,72,50,30.18,29.99,6,2,9,0.00
2014-7-13,75.5,71.6,71.3,70.0,65.7,63.0,92,80,74,29.98,29.70,11,4,18,0.01
2014-7-14,86.1,73.3,64.0,70.0,64.5,59.0,93,75,52,29.84,29.76,6,1,11,0.00
2014-7-15,78.5,68.4,60.8,73.0,64.8,59.0,94,86,74,29.80,29.64,6,1,12,0.21
2014-7-16,80.0,70.3,60.2,66.0,61.0,55.0,93,74,48,29.85,29.69,4,1,8,0.00
2014-7-17,76.1,65.7,56.8,61.0,56.7,53.0,90,74,52,30.05,29.85,7,1,9,0.00
2014-7-18,80.7,67.1,53.1,64.0,56.0,51.0,92,70,44,30.20,30.06,5,1,8,0.00
2014-7-19,82.0,68.6,55.0,67.0,59.2,53.0,94,74,51,30.26,30.15,4,1,9,0.00
2014-7-20,82.6,72.2,60.5,64.0,59.4,56.0,88,66,44,30.16,30.05,7,2,11,0.00
2014-7-21,86.1,74.1,62.0,68.0,61.6,56.0,84,66,47,30.15,30.04,4,1,10,0.00
2014-7-22,88.1,77.8,67.6,75.0,67.4,63.0,85,72,49,30.08,29.86,5,2,9,0.00
2014-7-23,82.1,73.7,65.6,74.0,69.1,62.0,94,85,75,29.85,29.67,7,2,14,0.54
2014-7-24,70.7,64.2,55.2,62.0,54.7,51.0,88,72,55,29.93,29.82,6,1,10,0.00
2014-7-25,80.2,66.7,52.3,64.0,56.9,50.0,93,72,51,29.97,29.86,6,2,9,0.00
2014-7-26,81.4,69.3,59.8,64.0,59.1,54.0,83,71,49,29.91,29.79,6,1,10,0.00
2014-7-27,78.2,67.0,63.2,69.0,63.1,58.0,95,87,71,29.79,29.57,8,2,13,1.86
2014-7-28,68.1,63.1,58.3,67.0,61.8,57.0,96,95,94,29.63,29.46,6,1,13,0.66
2014-7-29,71.2,61.9,53.8,60.0,55.8,51.0,95,81,57,29.93,29.62,6,1,11,0.01
2014-7-30,76.6,63.1,50.1,61.0,54.2,49.0,96,75,47,30.01,29.92,6,1,10,0.00
2014-7-31,71.3,63.9,57.2,63.0,58.9,54.0,93,84,68,30.08,29.96,7,1,15,0.53
2014-8-1,81.9,70.6,60.1,69.0,62.7,58.0,92,77,56,30.14,30.07,7,1,11,0.00
2014-8-2,83.3,72.2,65.5,71.0,65.1,61.0,88,79,63,30.15,30.04,8,2,15,0.00
2014-8-3,82.9,71.8,62.7,70.0,65.1,60.0,93,80,58,30.09,29.97,4,1,9,0.01
2014-8-4,82.1,70.6,64.8,71.0,64.9,58.0,96,83,49,30.03,29.95,4,1,5,0.17
2014-8-5,81.4,70.2,62.9,70.0,65.6,61.0,94,86,63,29.99,29.88,7,1,9,0.34
2014-8-6,74.9,67.4,60.7,64.0,59.4,53.0,95,77,51,29.90,29.84,5,1,8,0.03
2014-8-7,74.2,63.9,58.4,64.0,59.2,56.0,95,85,56,29.97,29.87,7,1,9,0.13
2014-8-8,78.2,66.1,53.8,64.0,58.7,52.0,96,78,52,30.06,29.97,6,1,8,0.00
2014-8-9,81.4,68.5,56.0,66.0,59.2,54.0,95,74,48,30.11,30.03,6,1,8,0.00
2014-8-10,82.3,68.8,56.1,67.0,59.8,54.0,94,75,48,30.14,30.06,4,0,7,0.00
2014-8-11,86.7,71.6,57.2,70.0,61.9,55.0,94,73,49,30.11,29.99,5,1,8,0.00
2014-8-12,80.2,72.8,67.0,64.0,59.7,55.0,73,64,54,30.02,29.86,12,3,15,0.00
2014-8-13,71.9,66.4,61.1,65.0,61.8,59.0,95,86,65,29.86,29.66,8,2,12,1.25
2014-8-14,69.1,60.4,55.0,60.0,53.6,49.0,95,79,61,29.82,29.66,7,2,14,0.01
2014-8-15,66.6,59.1,53.7,57.0,53.6,49.0,92,82,68,29.86,29.81,7,2,12,0.07
2014-8-16,64.5,60.0,55.8,59.0,56.2,54.0,94,87,78,29.89,29.78,9,2,13,0.14
2014-8-17,70.6,62.9,59.1,60.0,57.6,56.0,91,83,65,29.84,29.75,4,1,11,0.05
2014-8-18,69.6,61.1,53.0,58.0,53.5,50.0,92,77,58,29.90,29.83,6,1,9,0.01
2014-8-19,75.9,61.5,47.9,62.0,54.0,46.0,96,79,49,29.95,29.88,4,1,6,0.00
2014-8-20,83.3,67.8,51.8,69.0,59.5,50.0,95,76,52,29.97,29.92,4,1,9,0.00
2014-8-21,71.0,66.6,62.8,65.0,60.3,56.0,92,80,66,30.03,29.96,8,2,18,0.06
2014-8-22,65.8,63.3,60.5,63.0,60.0,58.0,94,89,83,30.10,30.01,5,1,9,0.07
2014-8-23,76.4,66.4,58.7,67.0,61.3,57.0,96,84,64,30.13,30.09,4,0,6,0.00
2014-8-24,80.7,68.6,57.2,68.0,61.3,56.0,96,79,52,30.18,30.08,5,0,6,0.00
2014-8-25,84.7,70.0,56.4,69.0,61.8,55.0,96,78,39,30.19,30.06,3,1,6,0.00
2014-8-26,85.0,73.6,60.9,70.0,63.2,58.0,93,72,48,30.11,29.91,7,2,12,0.00
2014-8-27,84.0,73.1,64.1,69.0,63.1,60.0,87,71,58,29.92,29.84,8,2,16,0.00
2014-8-28,71.8,64.3,58.8,60.0,55.6,50.0,93,75,52,30.02,29.85,6,1,9,0.00
2014-8-29,74.3,62.4,54.3,61.0,56.4,52.0,93,81,59,30.20,30.03,4,1,8,0.00
2014-8-30,77.6,68.6,58.0,62.0,59.0,55.0,91,72,58,30.17,29.97,14,4,20,0.00
2014-8-31,75.5,71.2,67.9,70.0,66.6,61.0,93,85,72,29.97,29.86,10,4,17,0.02
2014-9-1,86.1,74.8,68.0,73.0,67.8,65.0,95,80,53,29.94,29.83,4,1,8,0.00
2014-9-2,88.8,75.6,63.9,74.0,68.6,62.0,93,79,57,29.83,29.65,8,2,14,0.20
2014-9-3,80.6,68.2,59.2,66.0,59.9,54.0,96,77,43,30.05,29.72,6,1,10,0.00
2014-9-4,82.6,69.9,57.1,67.0,61.0,54.0,91,75,54,30.12,30.01,7,2,11,0.00
2014-9-5,85.0,76.2,67.2,71.0,67.5,62.0,83,75,61,30.06,29.81,8,3,16,0.00
2014-9-6,77.1,68.6,59.9,70.0,64.9,58.0,95,88,76,29.93,29.74,9,2,11,0.23
2014-9-7,74.1,62.1,50.5,58.0,53.9,49.0,95,76,49,30.20,29.94,4,1,9,0.00
2014-9-8,78.3,63.1,49.3,61.0,54.4,48.0,95,75,50,30.35,30.21,7,1,9,0.00
2014-9-9,74.9,64.1,54.6,56.0,52.1,48.0,84,66,47,30.33,30.13,7,2,11,0.00
2014-9-10,76.5,65.7,56.6,62.0,56.7,51.0,84,73,59,30.12,29.87,5,2,13,0.00
2014-9-11,72.7,65.1,55.2,66.0,58.0,47.0,91,78,69,30.00,29.61,15,5,24,0.05
2014-9-12,54.9,49.9,41.5,47.0,43.3,39.0,91,78,73,30.29,30.01,3,1,9,0.00
2014-9-13,54.2,47.4,39.2,53.0,44.8,37.0,95,91,79,30.28,30.03,5,1,12,0.10
2014-9-14,53.8,47.6,42.8,45.0,41.8,39.0,90,80,69,30.31,30.17,5,1,12,0.00
2014-9-15,65.4,51.5,35.9,48.0,42.7,34.0,95,74,47,30.25,30.03,6,1,11,0.00
2014-9-16,63.1,54.6,50.7,56.0,50.9,47.0,94,87,70,30.03,29.91,4,1,9,0.12
2014-9-17,68.3,57.2,47.0,51.0,47.9,45.0,96,73,45,30.01,29.90,5,1,10,0.00
2014-9-18,55.6,50.9,41.2,50.0,43.3,34.0,90,76,60,30.22,29.90,8,2,11,0.00
2014-9-19,58.3,46.8,35.3,41.0,35.4,31.0,88,67,38,30.41,30.23,6,1,12,0.00
2014-9-20,67.5,59.1,46.9,59.0,50.6,38.0,79,73,66,30.25,29.89,16,6,25,0.00
2014-9-21,79.5,69.3,62.5,64.0,60.2,56.0,92,74,57,29.90,29.49,15,4,24,0.19
2014-9-22,62.3,53.8,45.5,60.0,47.2,39.0,94,79,65,30.11,29.48,8,2,17,0.02
2014-9-23,63.6,53.9,45.3,54.0,47.5,41.0,93,79,64,30.41,30.11,5,1,9,0.00
2014-9-24,72.7,59.6,46.3,59.0,51.8,45.0,96,77,51,30.57,30.41,5,1,10,0.00
2014-9-25,73.7,59.7,49.0,59.0,52.1,46.0,92,77,57,30.48,30.24,4,1,8,0.00
2014-9-26,77.5,61.7,48.5,62.0,54.5,47.0,96,79,49,30.27,30.15,5,0,8,0.00
2014-9-27,79.5,64.2,51.2,63.0,57.3,50.0,96,80,54,30.23,30.13,3,0,6,0.00
2014-9-28,82.1,65.9,53.9,65.0,59.3,53.0,96,81,49,30.16,29.96,5,1,8,0.00
2014-9-29,76.1,63.3,50.5,63.0,56.3,47.0,93,79,60,29.99,29.89,5,1,8,0.00
2014-9-30,74.1,58.7,45.9,62.0,53.4,44.0,96,83,63,30.02,29.92,6,1,8,0.00
2014-10-1,59.0,54.6,51.5,54.0,52.3,50.0,95,92,84,30.14,30.03,4,0,6,0.00
2014-10-2,70.4,58.8,53.4,60.0,54.8,52.0,95,87,65,30.20,30.07,4,0,8,0.00
2014-10-3,74.7,62.4,52.9,55.0,51.3,45.0,95,70,39,30.08,29.74,8,2,15,0.00
2014-10-4,59.5,55.5,49.5,55.0,51.3,47.0,95,86,64,29.73,29.50,6,2,16,0.88
2014-10-5,59.5,51.1,45.7,48.0,43.6,39.0,95,77,54,29.89,29.61,5,1,9,0.01
2014-10-6,61.5,53.0,42.7,48.0,42.0,38.0,85,67,48,29.99,29.89,9,3,21,0.01
2014-10-7,68.0,61.3,55.8,56.0,50.9,47.0,92,69,59,29.96,29.82,11,4,22,0.03
2014-10-8,64.9,57.7,51.1,56.0,48.9,37.0,91,74,54,29.81,29.52,12,4,20,0.18
2014-10-9,57.7,49.5,44.4,43.0,38.7,35.0,86,67,51,29.95,29.79,15,4,16,0.00
2014-10-10,58.6,49.6,42.0,45.0,40.1,37.0,84,71,54,30.11,29.95,6,2,11,0.00
2014-10-11,54.7,45.4,39.4,45.0,40.4,37.0,93,83,60,30.15,30.06,3,0,6,0.00
2014-10-12,58.5,46.8,37.9,46.0,36.9,32.0,95,72,41,30.30,30.15,4,0,8,0.00
2014-10-13,59.4,50.2,35.4,52.0,42.8,32.0,91,76,60,30.27,30.13,13,3,20,0.00
2014-10-14,77.0,67.2,58.2,63.0,58.9,52.0,87,75,61,30.14,29.96,13,5,22,0.00
2014-10-15,78.0,72.3,67.5,65.0,63.3,60.0,82,73,62,29.97,29.83,16,4,18,0.00
2014-10-16,73.0,68.7,61.3,69.0,64.6,57.0,94,87,75,29.82,29.56,10,2,15,0.79
2014-10-17,67.5,61.2,57.8,58.0,53.9,51.0,92,78,60,29.58,29.50,13,3,15,0.00
2014-10-18,60.8,56.0,44.6,55.0,51.2,42.0,94,84,73,29.69,29.47,7,2,11,0.55
2014-10-19,45.9,41.8,39.1,41.0,34.0,27.0,90,74,59,29.99,29.69,7,2,14,0.00
2014-10-20,47.8,42.3,34.2,39.0,33.4,28.0,81,71,62,30.00,29.91,5,1,9,0.00
2014-10-21,49.7,47.2,43.1,48.0,44.2,38.0,95,89,70,30.10,29.91,3,0,6,0.32
2014-10-22,52.6,47.4,44.9,47.0,44.1,39.0,96,88,74,30.20,30.07,7,2,11,0.00
2014-10-23,45.6,43.2,42.2,43.0,40.2,38.0,95,89,79,30.07,29.87,7,2,15,0.38
2014-10-24,46.3,42.9,39.6,43.0,41.1,38.0,95,93,87,29.87,29.81,6,1,10,0.09
2014-10-25,56.8,47.5,38.0,49.0,43.7,37.0,95,87,64,29.80,29.43,8,2,12,0.27
2014-10-26,49.5,46.4,45.1,48.0,43.1,40.0,93,88,81,29.71,29.41,5,1,16,0.14
2014-10-27,51.7,45.3,42.0,43.0,40.0,38.0,90,82,69,30.01,29.71,4,1,7,0.02
2014-10-28,60.4,51.1,41.9,52.0,45.3,39.0,91,81,68,30.02,29.78,9,2,15,0.03
2014-10-29,58.2,53.3,47.0,55.0,47.2,38.0,94,80,63,29.84,29.76,8,2,15,0.16
2014-10-30,51.0,46.3,41.7,42.0,38.2,34.0,83,74,61,30.01,29.84,5,1,12,0.00
2014-10-31,50.8,41.7,35.9,38.0,33.1,30.0,86,72,59,30.07,30.00,4,1,7,0.00
2014-11-1,41.7,35.9,31.8,35.0,31.7,28.0,93,85,71,30.05,30.00,6,2,12,0.05
2014-11-2,43.6,36.6,31.7,31.0,24.7,16.0,84,64,36,30.06,29.91,17,4,19,0.00
2014-11-3,48.1,39.3,31.2,32.0,24.1,18.0,77,56,34,30.04,29.94,5,1,11,0.00
2014-11-4,60.6,48.8,33.0,39.0,33.7,28.0,85,60,38,30.06,29.82,12,3,18,0.00
2014-11-5,58.9,52.5,47.8,46.0,38.7,34.0,78,60,40,30.07,29.82,13,4,22,0.03
2014-11-6,48.3,44.7,38.7,39.0,37.4,35.0,93,76,64,30.07,29.67,3,1,8,0.15
2014-11-7,38.4,35.7,32.8,37.0,32.7,24.0,94,89,70,29.86,29.61,7,2,16,0.21
2014-11-8,41.7,36.9,30.9,28.0,25.2,22.0,76,63,53,29.96,29.77,11,3,12,0.00
2014-11-9,44.2,42.0,37.7,35.0,30.0,28.0,72,63,56,29.94,29.76,7,2,15,0.00
2014-11-10,50.6,45.2,40.3,39.0,34.4,29.0,73,66,60,30.12,29.94,6,2,10,0.00
2014-11-11,61.1,54.1,45.7,50.0,42.7,34.0,79,66,56,30.04,29.83,12,4,21,0.00
2014-11-12,56.2,48.7,39.0,51.0,40.5,26.0,90,74,58,30.06,29.76,16,4,20,0.03
2014-11-13,41.1,37.4,33.0,31.0,26.4,22.0,89,65,55,30.09,29.95,7,2,13,0.00
2014-11-14,36.6,31.6,27.5,31.0,25.1,20.0,89,77,61,30.12,29.93,6,1,12,0.00
2014-11-15,38.8,31.3,27.0,21.0,18.4,16.0,76,60,45,30.27,30.12,9,2,13,0.00
2014-11-16,37.4,34.7,31.2,26.0,22.8,19.0,72,62,54,30.27,30.04,9,3,17,0.00
2014-11-17,39.0,35.6,33.0,37.0,32.2,26.0,93,88,65,30.04,29.41,7,1,10,0.33
2014-11-18,37.6,28.9,23.8,36.0,16.5,9.0,92,61,46,29.73,29.45,14,6,25,0.00
2014-11-19,33.0,27.2,23.3,21.0,14.1,9.0,79,59,45,30.05,29.73,12,3,18,0.00
2014-11-20,36.5,28.9,25.5,24.0,17.0,12.0,71,62,54,29.89,29.70,16,6,24,0.00
2014-11-21,29.2,24.7,22.0,17.0,12.4,5.0,75,60,40,30.38,29.84,12,4,17,0.00
2014-11-22,39.1,30.0,22.1,27.0,16.8,11.0,74,59,40,30.35,29.94,12,4,22,0.00
2014-11-23,49.8,44.1,37.9,42.0,38.4,28.0,90,81,64,30.08,29.93,6,2,12,0.02
2014-11-24,66.1,55.5,46.4,59.0,50.3,38.0,95,83,68,29.92,29.33,13,4,21,0.34
2014-11-25,55.1,46.0,39.5,49.0,34.3,28.0,80,64,51,30.13,29.52,14,5,22,0.00
2014-11-26,39.3,32.9,28.7,28.0,25.5,21.0,92,75,60,30.25,29.96,6,2,20,0.20
2014-11-27,29.6,27.5,24.7,27.0,23.7,21.0,92,85,77,30.07,29.95,4,1,8,0.01
2014-11-28,29.7,26.5,24.8,23.0,20.3,15.0,88,78,66,30.18,30.04,7,2,13,0.03
2014-12-10,31.3,30.6,29.8,30.0,29.2,28.0,94,94,94,29.69,29.52,0,0,0,0.63
2014-12-11,34.6,32.7,30.6,32.0,30.6,28.0,94,92,90,29.80,29.51,2,0,3,0.10
2014-12-12,32.5,30.3,28.1,30.0,27.6,25.0,91,89,87,29.99,29.80,2,0,4,0.02
2014-12-13,33.0,28.5,25.2,29.0,25.6,23.0,91,89,84,29.98,29.89,4,0,6,0.00
2014-12-14,35.4,30.8,26.5,32.0,28.0,24.0,91,89,85,30.03,29.88,4,1,7,0.00
2014-12-15,32.5,30.6,28.3,29.0,27.7,26.0,91,88,86,30.14,30.03,5,1,9,0.00
2014-12-16,37.4,32.9,29.3,35.0,30.3,27.0,91,89,87,30.12,29.86,9,2,15,0.00
2014-12-17,40.0,38.0,35.4,38.0,36.2,34.0,94,93,91,29.86,29.73,3,1,9,0.04
2014-12-18,35.7,32.4,28.0,34.0,29.7,24.0,93,89,85,29.95,29.74,7,1,15,0.04
2014-12-19,28.0,24.0,16.1,26.0,19.9,13.0,92,84,80,30.25,29.95,8,2,12,0.00
2014-12-20,26.8,18.4,11.7,20.0,14.1,8.0,90,83,70,30.37,30.25,3,1,6,0.00
2014-12-21,27.4,22.3,14.5,23.0,19.4,12.0,99,88,83,30.41,30.35,3,0,5,0.00
2014-12-22,28.9,24.9,21.4,24.0,21.5,19.0,91,87,82,30.41,30.27,3,1,6,0.00
2014-12-23,38.7,33.7,25.5,37.0,31.4,22.0,93,89,86,30.27,30.10,4,1,10,0.22
2014-12-24,45.9,41.7,38.7,45.0,39.7,36.0,95,92,87,30.10,29.41,10,2,14,0.27
2014-12-25,53.0,44.4,39.4,52.0,37.4,29.0,96,77,64,29.96,29.28,18,6,26,0.02
2014-12-26,43.8,40.1,35.8,33.0,31.3,30.0,81,71,66,30.15,29.96,10,3,15,0.00
2014-12-27,46.4,41.3,38.3,37.0,33.6,31.0,76,74,69,30.18,29.84,9,2,21,0.00
2014-12-28,46.9,41.1,30.7,41.0,32.3,19.0,90,71,56,30.01,29.71,16,3,17,0.00
2014-12-29,34.9,25.6,18.7,26.0,14.5,8.0,88,63,50,30.30,29.98,7,2,10,0.01
2014-12-30,19.0,14.2,9.9,9.0,2.3,0.0,68,59,47,30.44,30.30,4,1,8,0.00
2014-12-31,22.4,17.4,11.7,11.0,7.4,3.0,84,66,50,30.31,29.96,7,2,15,0.00
2015-1-1,29.5,24.9,19.9,20.0,13.2,9.0,70,62,51,29.95,29.78,14,4,18,0.00
2015-1-2,30.4,23.9,15.5,23.0,12.1,0.0,76,61,48,30.51,29.83,13,3,15,0.00